Погода в Калдас-Новас

Бразилия     17°44′44″S   48°37′32″W
темп.,
°C
ветер,
м/с
пор.,
м/с
влажн.,
%
обл.,
%
осадки,
мм/ч
давл.,
гПа
погр.,
м
8 декабря, ср
ср800:00+20ююв22797 0.0 101019
03:00+18юв00850 0.0 100911
06:00+18юв11820 0.0 101021
09:00+25в23560 0.0 1012793
12:00+30з35380 0.0 10101997
15:00+30зюз663940 0.0 10082106
18:00+26ююз595128 0.0 1008563
21:00+21ююз34680 0.0 101056
9 декабря, чт
чт900:00+19ююв22750 0.0 101131
03:00+18ююв11820 0.0 101111
06:00+17юв22830 0.0 101225
09:00+25в33530 0.0 1012855
12:00+32юз12365 0.0 10102048
15:00+32юз32301 0.0 10072785
18:00+26ююз584894 0.0 1007502
21:00+21ю2258100 0.0 101018
10 декабря, пт
пт1000:00+19ююв116195 0.0 101111
03:00+20ююв1255100 0.0 101014
06:00+18ююв226420 0.0 101117
09:00+27вюв12455 0.0 1011604
12:00+33з1131100 0.0 10082294
15:00+33зюз212694 0.0 10052844
18:00+28ююз5846100 0.0 1005420
21:00+23ю2258100 0.0 100714
11 декабря, сб
сб1100:00+24в2251100 0.0 100854
03:00+21зюз005849 0.0 100611
06:00+20всв116454 0.0 100811
09:00+28св22515 0.0 1009772
12:00+34сз133332 0.0 10062454
15:00+35сз432858 0.0 10033255
18:00+30ю464367 0.0 1003285
21:00+25всв115839 0.1 100611
12 декабря, вс
вс1200:00+23в117179 0.0 100711
03:00+24св126767 0.1 100650
06:00+21св24835 0.1 1008101
09:00+29св46555 0.1 1009913
12:00+33с5537100 0.0 10072684
15:00+29ссз4651100 0.1 1005546
18:00+22св3889100 1.8 1007365
21:00+21вюв2299100 36.5 101088